Moses Lake, WA

2:41 AM PST on January 19, 2018 (GMT -0800)
Grant County International

Weather History for KMWH - June, 2011

Change the Weather History Date:

Sunday, June 19, 2011

  Actual Average Record
Temperature  
Mean Temperature 67 °F 67 °F  
Max Temperature 81 °F 81 °F 95 °F (1985)
Min Temperature 53 °F 53 °F 42 °F (1986)
Degree Days  
Heating Degree Days 0 1  
Month to date heating degree days 63 42  
Since 1 June heating degree days 63 42  
Since 1 July heating degree days 6246 5869  
Cooling Degree Days 2 3  
Month to date cooling degree days 9 41  
Year to date cooling degree days 9 66  
Since 1 June cooling degree days 9 41  
Growing Degree Days 16 (Base 50)    
Moisture  
Dew Point 43 °F    
Average Humidity 47    
Maximum Humidity 66    
Minimum Humidity 28    
Precipitation  
Precipitation 0.00 in 0.03 in 0.08 in (1981)
Month to date precipitation 0.24 0.59  
Year to date precipitation 4.24 4.61  
Sea Level Pressure  
Sea Level Pressure 29.86 in    
Wind  
Wind Speed 9 mph (WSW)    
Max Wind Speed 18 mph    
Max Gust Speed 25 mph    
Visibility 10 miles    
Events      
T = Trace of Precipitation, MM = Missing Value Source: NWS Daily Summary

Daily Weather History Graph

Daily Weather History Graph

Search for Another Location

Airport or City:

Trip Planner

Search our weather history database for the weather conditions in past years. The results will help you decide how hot, cold, wet, or windy it might be!

Date:

Astronomy

Jun. 19, 2011 Rise Set
Actual Time 5:00 AM PDT 8:56 PM PDT
Civil Twilight 4:20 AM PDT 9:36 PM PDT
Nautical Twilight 3:25 AM PDT 10:31 PM PDT
Astronomical Twilight 2:00 AM PDT 11:56 PM PDT
Moon 11:21 PM PDT 9:18 AM PDT
Length of Visible Light 17h 15m
Length of Day
15h 55m
Waning Gibbous, 83% of the Moon is Illuminated
Jun 19
Waning Gibbous
Jun 23
Last Quarter
Jul 1
New
Jul 7
First Quarter
Jul 14
Full

Hourly Weather History & Observations

Time (PDT) Temp. Dew Point Humidity Pressure Visibility Wind Dir Wind Speed Gust Speed Precip Events Conditions
12:52 AM 60.1 °F 43.0 °F 53% 29.83 in 10.0 mi West 5.8 mph - N/A   Overcast
1:52 AM 55.9 °F 42.1 °F 60% 29.84 in 10.0 mi WNW 4.6 mph - N/A   Clear
2:52 AM 53.1 °F 42.1 °F 66% 29.86 in 10.0 mi West 3.5 mph - N/A   Clear
3:52 AM 53.1 °F 42.1 °F 66% 29.86 in 10.0 mi NNW 3.5 mph - N/A   Overcast
4:52 AM 55.0 °F 41.0 °F 59% 29.88 in 10.0 mi Calm Calm - N/A   Scattered Clouds
5:52 AM 57.0 °F 45.0 °F 64% 29.88 in 10.0 mi Calm Calm - N/A   Overcast
6:52 AM 59.0 °F 44.1 °F 58% 29.89 in 10.0 mi South 3.5 mph - N/A   Overcast
7:52 AM 61.0 °F 44.1 °F 54% 29.90 in 10.0 mi SW 3.5 mph - N/A   Overcast
8:52 AM 64.9 °F 44.1 °F 47% 29.90 in 10.0 mi SSW 4.6 mph - N/A   Mostly Cloudy
9:52 AM 70.0 °F 43.0 °F 38% 29.89 in 10.0 mi WSW 15.0 mph - N/A   Clear
10:52 AM 72.0 °F 44.1 °F 37% 29.89 in 10.0 mi SW 15.0 mph 18.4 mph N/A   Clear
11:52 AM 75.0 °F 45.0 °F 34% 29.88 in 10.0 mi SSW 13.8 mph 19.6 mph N/A   Clear
12:52 PM 75.2 °F 44.6 °F 34% 29.88 in 10.0 mi SSW 11.5 mph 18.4 mph N/A   Clear
1:52 PM 78.1 °F 44.1 °F 30% 29.86 in 10.0 mi WSW 12.7 mph - N/A   Clear
2:52 PM 79.0 °F 44.1 °F 29% 29.85 in 10.0 mi SW 10.4 mph - N/A   Clear
3:52 PM 80.1 °F 44.1 °F 28% 29.84 in 10.0 mi SW 15.0 mph 18.4 mph N/A   Mostly Cloudy
4:52 PM 80.1 °F 44.1 °F 28% 29.83 in 10.0 mi SW 13.8 mph - N/A   Scattered Clouds
5:52 PM 79.0 °F 44.1 °F 29% 29.82 in 10.0 mi SW 11.5 mph 20.7 mph N/A   Clear
6:52 PM 77.0 °F 44.1 °F 31% 29.82 in 10.0 mi SSW 11.5 mph - N/A   Partly Cloudy
7:52 PM 73.9 °F 45.0 °F 35% 29.83 in 10.0 mi SSW 11.5 mph - N/A   Clear
8:52 PM 69.1 °F 46.9 °F 45% 29.83 in 10.0 mi South 9.2 mph - N/A   Clear
9:52 PM 63.0 °F 41.0 °F 45% 29.85 in 10.0 mi NNW 6.9 mph - N/A   Clear
10:52 PM 61.0 °F 39.9 °F 46% 29.86 in 10.0 mi NNW 8.1 mph - N/A   Clear
11:52 PM 57.9 °F 41.0 °F 53% 29.86 in 10.0 mi NW 9.2 mph - N/A   Clear